User: anonymous   Login
Location: Unspecified
(0.0000°N, 0.0000°E)
Time: 19:45:23
(UTC+00:00)
Language:

GEOEYE 1 - Orbit

View from above orbital plane
View from above orbital plane
View from above satellite
View from above satellite

Ground track
Ground track

The orbit data is extracted from the following two-line orbital elements,

1 33331U 08042A   19047.20102755 -.00000055  00000-0 -14764-5 0  9999
2 33331  98.1075 123.6555 0010071 142.5611 217.6352 14.64306006558229
Epoch (UTC): 16 February 2019 04:49:28
Eccentricity: 0.0010071
inclination: 98.1075°
perigee height: 672 km
apogee height: 686 km
right ascension of ascending node: 123.6555°
argument of perigee: 142.5611°
revolutions per day: 14.64306006
mean anomaly at epoch: 217.6352°
orbit number at epoch: 55822

The dashed part of the orbit path shows where the satellite is in the earth's shadow,  

DLR